CZ-3B DEB, 40162

Orbit data source: Space-Track

CZ-3B DEB, 40162 is space debris in HEO originally from a launch on Sat, 04 Sep 2010 UTC launched from the Xichang Space Center, China (XSC). Debris objects in space refer to the collection of defunct objects orbiting the Earth. Examples of debris include non-operational satellites, rocket bodies, and fragments generated from explosions, collisions, or faulty payload assembly.

Loading next visibility...
Identifier
40162, 2010-042P
Orbit
HEO
Country
Flag of CNCN / PRC
Related business
Manufacturer
CALT
Mission
Spacecraft
Bus & Motor
Unknown
Mass
Unknown
Launch date (UTC)
2010-09-04 (15 years ago)
Launch vehicle
Unknown
Launch site
Xichang Space Center, China (XSC)
Object type
Payload
Rocket body
Debris
Shape & HBR
Unknown shape, 0.2 m
Radar Cross Section
Medium (>0.1 m² and <1 m²)

Expand to show TLE details & history
Last TLE update: 5 days ago

TLE from 5 days ago
0 CZ-3B DEB
1 40162U 10042P   25294.59819660 -.00000011  00000-0  00000-0 0  9999
2 40162  27.2027 313.2909 7220933 261.8224  17.9637  1.92074771 83623
Epoch: 2025-10-21T14:21Z
TLE epoch observation values (Epoch: 2025-10-21T14:21:24.186Z)
Latitude
-0.00019°
Longitude
67.6085°
Altitude
8,159.518 km
Speed
6.345 km/s
True Right ascension
20h 52m 58s
True Declination
0° 00' 01"
Sunlit
Object was in daylight at epoch
Visualization orbit readout
Latitude
Unknown
Longitude
Unknown
Altitude
Unknown
Speed
Unknown
Apparent Right ascension
Unknown
Apparent Declination
Unknown
Sunlit
N/A
Visualization observer readout
Local Sidereal Time
22:04:11
Azimuth
Unknown
Elevation
Unknown
Doppler factor
Unknown
Orbital elements
Apogee altitude
40,704.955 km
Perigee altitude
1,220.003 km
Semi-major axis
27,340.616 km
Eccentricity
0.72209
Inclination
27.2027°
RAAN
313.2909°
Arg. of periapsis
261.8224°
True anomaly
97.67547°
Mean anomaly
17.9637°
Eccentric anomaly
49.35651°
Mean motion
0.4801 °/min
Orbital period
749.85 mins
BSTAR
0
Loading maneuver chart data...
Computing Atmospheric mass density...
Loading historical data...
Loading historical data...
Loading historical data...
Loading historical data...
Loading historical data...
Loading historical data...
Loading historical data...

Documentation

Showing up to 5 results
|